Regional Weather Roundup
Issued by NWS

Home | Current Version | Previous Version | Text Only | Print | Product List | Glossary Off
Versions: 1 2 3 4 5 6 7 8 9 10 11 12 13 14 15 16 17 18 19 20 21 22 23 24 25 26 27

000
ASUS45 KCYS 160910
RWRWY

WYOMING REGIONAL WEATHER ROUNDUP
NATIONAL WEATHER SERVICE CHEYENNE WY
300 AM MDT WED AUG 16 2017

NOTE:  "FAIR" INDICATES FEW OR NO CLOUDS BELOW 12,000 FEET
WITH NO SIGNIFICANT WEATHER AND/OR OBSTRUCTIONS TO VISIBILITY.

WYZ001-161000-
YELLOWSTONE NATIONAL PARK

CITY           SKY/WX    TMP DP  RH WIND       PRES   REMARKS
LK YELLOWSTONE   N/A     36  35  96 CALM      30.23R
W YELLOWSTONE  NOT AVBL

$$
WYZ002>013-054>058-071-098>099-161000-
NORTHERN WYOMING

CITY           SKY/WX    TMP DP  RH WIND       PRES   REMARKS
JACKSON        FAIR      41  37  86 N6        30.16R
CODY           FAIR      53  42  66 CALM      30.06R
GREYBULL       FAIR      56  51  84 SE3       30.00R
WORLAND        FAIR      55  49  80 CALM      30.02R
SHERIDAN       FAIR      49  43  80 N5        30.00F
BUFFALO        FAIR      53  40  61 SW8       30.07R
GILLETTE       FAIR      48  45  89 S7        30.03R
HULETT         FAIR      50  46  87 S5        30.03S
NEWCASTLE      FAIR      52  46  82 NW6       30.02S

$$
WYZ014>020-022>026-101>103-161000-
CENTRAL WYOMING

CITY           SKY/WX    TMP DP  RH WIND       PRES   REMARKS
BIG PINEY      FAIR      39  37  92 NW6       30.19R WCI  35
PINEDALE       FAIR      37  37 100 W5        30.20R WCI  34
DUBOIS         FAIR      41  36  81 W12       30.18R
LANDER           N/A    N/A N/A N/A MISG      30.09S
RIVERTON       FAIR      53  44  71 W9        30.10R
CASPER         FAIR      49  47  93 W3        30.11R
DOUGLAS        FAIR      51  48  89 N6        30.09R

$$
WYZ021-027>030-104>119-161000-
SOUTHERN WYOMING

CITY           SKY/WX    TMP DP  RH WIND       PRES   REMARKS
EVANSTON       FAIR      49  32  52 S6        30.17F
KEMMERER         N/A     46  39  76 N6        30.20R
FORT BRIDGER   FAIR      50  44  79 W7        30.20S
ROCK SPRINGS   FAIR      51  44  77 CALM      30.16R
RAWLINS        FAIR      50  44  80 W7        30.16F
SARATOGA       PTSUNNY   48  48 100 CALM      30.18S
LARAMIE        MOCLDY    50  43  77 CALM      30.16R
CHEYENNE       FAIR      55  44  66 NW12      30.10R
TORRINGTON     CLOUDY    59  58  96 W5        30.01S
PINE BLUFFS    FAIR      54  52  94 NW7       30.06F

$$




USA.gov is the U.S. government's official web portal to all federal, state and local government web resources and services.